sat.trackr.live / text

‹ back to catalog

STARLINK-34808

NORAD 65745 · 2025-216M

PAYLOAD ACTIVE UNKNOWN

§ Identity

Operator
Country
US
Launch date
2025-09-25
Launch site
AFETR
Launch vehicle
Mass (kg)
RCS (m²)

Purposes: comms

External: N2YO · Heavens-Above · Gunter

§ Orbital elements

Epoch: 2026-05-24T22:33:44.704800Z

Period
94.10 min
Inclination
53.1608°
Eccentricity
0.0001243
Mean motion
15.30207338 rev/d
Perigee alt
474.3 km
Apogee alt
476.0 km
Semi-major
6,853.3 km
B*
6.5337e-4
RAAN
338.3052°
Arg perigee
88.0631°
Mean anomaly
272.0512°
Rev number
3,819

§ Raw data

STARLINK-348081 65745U 25216M   26144.94010075  .00019046  00000+0  65337-3 0  99922 65745  53.1608 338.3052 0001243  88.0631 272.0512 15.30207338 38194

JSON: /api/v1/satellites/65745 · /tle

For live sub-satellite position, see the globe view (requires WebGL).

§ Visibility from observer

Set your observer location to see the next 7 days of passes ≥ 10°. The values pass through the URL so the page stays shareable.

No JS? Fill the form by hand. The geolocation button needs JavaScript.